Location: Newark
(44.3248°N, 23.7839°E)
Time: 05:50:03
(UTC+00:00)

PCSat - Pass Details

Date: 13 April 2024
Orbit: 783 x 792 km, 67.1° (Epoch: 26 May)

Event Time Altitude Azimuth Distance (km) Brightness Sun altitude
Rises 02:16:55 0° 336° (NNW) 3,298 12.9 -15.3°
Reaches altitude 10° 02:20:46 10° 3° (N) 2,367 12.5 -14.7°
Maximum altitude 02:23:20 13° 32° (NNE) 2,137 12.7 -14.3°
Drops below altitude 10° 02:25:54 10° 61° (ENE) 2,364 13.5 -13.9°
Sets 02:29:43 0° 87° (E) 3,290 14.1 -13.3°
